Clarksburg, WV

7:05 PM EDT on October 22, 2019 (GMT -0400)
Benedum

Weather History for KCKB - September, 2019

Change the Weather History Date:

Monday, September 16, 2019

  Actual Average Record
Temperature  
Mean Temperature 75 °F -  
Max Temperature 91 °F 76 °F 94 °F (1930)
Min Temperature 59 °F 53 °F 35 °F (1966)
Cooling Degree Days 10    
Month to date cooling degree days 144  
Year to date cooling degree days 1181  
Growing Degree Days 25 (Base 50)    
Moisture  
Dew Point 58 °F    
Average Humidity 57    
Maximum Humidity 84    
Minimum Humidity 29    
Precipitation  
Precipitation 0.00 in - - ()
Month to date precipitation 0.06  
Year to date precipitation 31.57  
Sea Level Pressure  
Sea Level Pressure 30.03 in    
Wind  
Wind Speed 4 mph (NW)    
Max Wind Speed 14 mph    
Max Gust Speed 19 mph    
Visibility 10 miles    
Events      
Averages and records for this station are not official NWS values.
T = Trace of Precipitation, MM = Missing Value Source: NWS Daily Summary

Daily Weather History Graph

Daily Weather History Graph

Search for Another Location

Airport or City:

Astronomy

Sep. 16, 2019 Rise Set
Actual Time 7:02 AM EDT 7:28 PM EDT
Civil Twilight 6:35 AM EDT 7:54 PM EDT
Nautical Twilight 6:04 AM EDT 8:26 PM EDT
Astronomical Twilight 5:31 AM EDT 8:58 PM EDT
Moon 9:02 PM EDT (9/16) 9:07 AM EDT (9/16)
Length of Visible Light 13h 18m
Length of Day
12h 25m
Waning Gibbous, 94% of the Moon is Illuminated
Sep 16
Waning Gibbous
Sep 21
Last Quarter
Sep 28
New
Oct 5
First Quarter
Oct 13
Full

Hourly Weather History & Observations

Time (EDT) Temp. Heat Index Dew Point Humidity Pressure Visibility Wind Dir Wind Speed Gust Speed Precip Events Conditions
12:53 AM 64.0 °F - 57.0 °F 78% 30.08 in 10.0 mi Calm Calm - N/A   Clear
1:53 AM 61.0 °F - 55.9 °F 83% 30.07 in 10.0 mi Calm Calm - N/A   Clear
2:53 AM 61.0 °F - 55.9 °F 83% 30.07 in 10.0 mi Calm Calm - N/A   Mostly Cloudy
3:53 AM 62.1 °F - 57.0 °F 84% 30.06 in 10.0 mi Calm Calm - N/A   Overcast
4:53 AM 60.1 °F - 55.9 °F 86% 30.06 in 10.0 mi Calm Calm - N/A   Mostly Cloudy
5:53 AM 62.1 °F - 57.0 °F 84% 30.07 in 10.0 mi Calm Calm - N/A   Overcast
6:53 AM 63.0 °F - 57.9 °F 84% 30.07 in 10.0 mi Calm Calm - N/A   Overcast
7:53 AM 64.0 °F - 59.0 °F 84% 30.09 in 10.0 mi Calm Calm - N/A   Overcast
8:53 AM 66.0 °F - 59.0 °F 78% 30.09 in 10.0 mi Calm Calm - N/A   Scattered Clouds
9:53 AM 75.0 °F - 57.0 °F 53% 30.09 in 10.0 mi Variable 3.5 mph - N/A   Scattered Clouds
10:53 AM 81.0 °F 80.8 °F 55.9 °F 42% 30.08 in 10.0 mi Variable 4.6 mph - N/A   Clear
11:53 AM 84.9 °F 83.2 °F 53.1 °F 33% 30.06 in 10.0 mi WNW 3.5 mph - N/A   Mostly Cloudy
12:53 PM 88.0 °F 86.1 °F 55.0 °F 32% 30.04 in 10.0 mi Variable 3.5 mph - N/A   Clear
1:53 PM 90.0 °F 87.7 °F 54.0 °F 29% 30.01 in 10.0 mi SW 11.5 mph - N/A   Mostly Cloudy
2:53 PM 88.0 °F 86.5 °F 55.9 °F 34% 30.00 in 10.0 mi West 9.2 mph - N/A   Partly Cloudy
3:53 PM 89.1 °F 88.2 °F 59.0 °F 36% 29.98 in 10.0 mi NW 10.4 mph - N/A   Partly Cloudy
4:53 PM 90.0 °F 89.1 °F 59.0 °F 35% 29.96 in 10.0 mi West 10.4 mph - N/A   Clear
5:53 PM 89.1 °F 88.8 °F 60.1 °F 38% 29.96 in 10.0 mi WNW 9.2 mph - N/A   Clear
6:53 PM 87.1 °F 87.0 °F 61.0 °F 41% 29.96 in 10.0 mi NW 4.6 mph - N/A   Mostly Cloudy
7:53 PM 81.0 °F 81.9 °F 62.1 °F 52% 29.97 in 10.0 mi North 5.8 mph - N/A   Clear
8:53 PM 78.1 °F - 63.0 °F 60% 29.98 in 10.0 mi NNE 3.5 mph - N/A   Clear
9:53 PM 73.0 °F - 63.0 °F 71% 29.99 in 10.0 mi NNE 5.8 mph - N/A   Partly Cloudy
10:53 PM 73.0 °F - 64.0 °F 73% 30.00 in 10.0 mi NNE 6.9 mph - N/A   Clear
11:53 PM 72.0 °F - 64.0 °F 76% 30.00 in 10.0 mi NNE 5.8 mph - N/A   Scattered Clouds